Date, MaxTemperature, MaxTemperatureNormal, MinTemperature, MinTemperatureNormal, Precipitation, PrecipitationNormal
2018-05-01, 66, 65.7, 38, 44.5, 0.00, 0.10
2018-05-02, 80, 66.0, 52, 44.8, 0.00, 0.11
2018-05-03, 84, 66.3, 64, 45.1, 0.00, 0.10
2018-05-04, 86, 66.6, 65, 45.5, 0.19, 0.11
2018-05-05, 80, 66.9, 51, 45.8, 0.11, 0.11
2018-05-06, 71, 67.1, 52, 46.1, 0.33, 0.12
2018-05-07, 54, 67.4, 44, 46.4, 0.34, 0.11
2018-05-08, 65, 67.7, 47, 46.7, 0.00, 0.10
2018-05-09, 75, 67.9, 53, 47.0, 0.00, 0.12
2018-05-10, 78, 68.2, 58, 47.3, 0.02, 0.10
2018-05-11, 77, 68.4, 57, 47.6, 0.04, 0.11
2018-05-12, 67, 68.7, 48, 48.0, 0.63, 0.11
2018-05-13, 77, 68.9, 51, 48.3, 0.21, 0.11
2018-05-14, 61, 69.2, 52, 48.6, 0.43, 0.10
2018-05-15, 76, 69.4, 56, 48.9, T, 0.11
2018-05-16, 85, 69.7, 57, 49.2, 0.44, 0.11
2018-05-17, 61, 69.9, 57, 49.6, 0.12, 0.11
2018-05-18, 75, 70.2, 59, 49.9, 0.00, 0.11
2018-05-19, 71, 70.4, 49, 50.2, 0.44, 0.11
2018-05-20, 62, 70.7, 51, 50.5, 0.02, 0.10
2018-05-21, 75, 71.0, 54, 50.9, 0.01, 0.12
2018-05-22, 74, 71.2, 58, 51.2, T, 0.11
2018-05-23, 72, 71.5, 63, 51.6, 0.58, 0.12
2018-05-24, 75, 71.7, 53, 51.9, 0.00, 0.12
2018-05-25, 81, 72.0, 57, 52.2, 0.00, 0.12
2018-05-26, 84, 72.3, 61, 52.6, 0.00, 0.12
2018-05-27, 86, 72.6, 65, 52.9, 0.06, 0.12
2018-05-28, 76, 72.8, 65, 53.2, 0.19, 0.11
2018-05-29, 81, 73.1, 67, 53.6, T, 0.12
2018-05-30, 87, 73.4, 68, 53.9, 0.00, 0.12
2018-05-31, 82, 73.7, 68, 54.3, 0.01, 0.12
2018-06-01, 73, 74.0, 68, 54.6, 0.00, 0.13
2018-06-02, 80, 74.3, 69, 54.9, 0.00, 0.13
2018-06-03, 77, 74.6, 61, 55.3, 0.26, 0.13
2018-06-04, 63, 74.9, 54, 55.6, 0.34, 0.14
2018-06-05, 69, 75.2, 53, 55.9, 0.00, 0.14
2018-06-06, 70, 75.4, 49, 56.2, 0.05, 0.14
2018-06-07, 61, 75.7, 48, 56.5, 0.00, 0.14
2018-06-08, 72, 76.0, 53, 56.9, 0.00, 0.14
2018-06-09, 77, 76.3, 60, 57.2, 0.00, 0.15
2018-06-10, 76, 76.6, 57, 57.5, 0.16, 0.14
2018-06-11, 59, 76.9, 56, 57.8, 2.37, 0.15
2018-06-12, 68, 77.2, 50, 58.0, T, 0.14
2018-06-13, 74, 77.5, 56, 58.3, 0.29, 0.14
2018-06-14, 77, 77.7, 56, 58.6, 0.00, 0.15
2018-06-15, 79, 78.0, 55, 58.9, 0.00, 0.14
2018-06-16, 76, 78.3, 54, 59.1, 0.00, 0.14
2018-06-17, 80, 78.5, 59, 59.4, 0.00, 0.15
2018-06-18, 85, 78.8, 67, 59.6, 0.00, 0.14
2018-06-19, 90, 79.0, 71, 59.8, 0.64, 0.14
2018-06-20, 80, 79.2, 62, 60.1, 0.03, 0.14
2018-06-21, 75, 79.5, 63, 60.3, 0.25, 0.13
2018-06-22, 78, 79.7, 59, 60.5, 0.03, 0.13
2018-06-23, 69, 79.9, 60, 60.7, 0.14, 0.13
2018-06-24, 73, 80.1, 62, 60.9, 0.56, 0.13
2018-06-25, 79, 80.2, 59, 61.0, 0.02, 0.13
2018-06-26, 75, 80.4, 52, 61.2, 0.00, 0.13
2018-06-27, 77, 80.6, 56, 61.4, 0.09, 0.13
2018-06-28, 71, 80.7, 64, 61.5, 0.15, 0.13
2018-06-29, 80, 80.9, 64, 61.7, 0.02, 0.13
2018-06-30, 86, 81.0, 65, 61.8, 0.00, 0.13
2018-07-01, 89, 81.1, 69, 61.9, 0.00, 0.12
2018-07-02, 91, 81.2, 72, 62.0, 0.00, 0.12
2018-07-03, 91, 81.3, 69, 62.1, 0.07, 0.11
2018-07-04, 88, 81.4, 70, 62.2, 0.00, 0.11
2018-07-05, 86, 81.5, 70, 62.3, 1.47, 0.11
2018-07-06, 84, 81.5, 71, 62.4, 0.09, 0.11
2018-07-07, 81, 81.6, 54, 62.5, 0.02, 0.10
2018-07-08, 74, 81.7, 53, 62.5, 0.00, 0.11
2018-07-09, 80, 81.7, 57, 62.6, 0.00, 0.12
2018-07-10, 84, 81.7, 61, 62.6, 0.00, 0.11
2018-07-11, 86, 81.7, 64, 62.7, 0.46, 0.12
2018-07-12, 79, 81.8, 55, 62.7, 0.00, 0.11
2018-07-13, 78, 81.8, 60, 62.7, 0.00, 0.12
2018-07-14, 82, 81.8, 64, 62.8, 0.00, 0.12
2018-07-15, 86, 81.8, 70, 62.8, 0.02, 0.11
2018-07-16, 85, 81.8, 68, 62.8, 0.32, 0.12
2018-07-17, 88, 81.8, 72, 62.8, 0.01, 0.11
2018-07-18, 81, 81.8, 58, 62.8, 0.88, 0.11
2018-07-19, 77, 81.7, 57, 62.8, 0.00, 0.11
2018-07-20, 79, 81.7, 60, 62.8, 0.00, 0.11
2018-07-21, 83, 81.7, 64, 62.8, 0.00, 0.11
2018-07-22, 72, 81.7, 58, 62.8, 2.06, 0.12
2018-07-23, 72, 81.7, 60, 62.8, 0.16, 0.11
2018-07-24, 76, 81.6, 69, 62.8, 1.33, 0.12
2018-07-25, 78, 81.6, 70, 62.7, 0.97, 0.11
2018-07-26, 76, 81.6, 64, 62.7, 0.52, 0.11
2018-07-27, 82, 81.5, 67, 62.7, 0.02, 0.11
2018-07-28, 76, 81.5, 64, 62.7, 0.11, 0.12
2018-07-29, 77, 81.5, 58, 62.6, 0.00, 0.11
2018-07-30, 78, 81.4, 61, 62.6, 0.07, 0.12
2018-07-31, 67, 81.4, 61, 62.5, 0.79, 0.12